Regional Weather Roundup
Issued by NWS Kansas City/Pleasant Hill, MO

Home | Current Version | Previous Version | Graphics & Text | Print | Product List | Glossary Off
Versions: 1 2 3 4 5 6 7 8 9 10 11 12 13 14 15 16 17 18 19 20 21 22 23 24 25 26 27 28 29 30 31 32 33 34 35 36 37 38 39 40 41 42 43 44 45 46 47 48 49 50

635
ASUS43 KEAX 291110
RWREAX

WEATHER ROUNDUP FOR EASTERN KANSAS AND NORTHWEST MISSOURI
NATIONAL WEATHER SERVICE KANSAS CITY/PLEASANT HILL MO
600 AM CDT MON MAY 29 2017

KSZ040-057-103>105-MOZ028-029-037-043-291200-
...KANSAS CITY METROPOLITAN AREA...

CITY           SKY/WX    TMP DP  RH WIND       PRES   REMARKS
K.C. INTL      CLOUDY    59  53  80 SW7       29.93F
K.C. DOWNTOWN  PTCLDY    59  54  83 VRB3      29.92F
LEES SUMMIT    PTCLDY    59  51  75 SW6       29.94F
OLATHE - IXD   MOCLDY    59  52  77 S6        29.94F
OLATHE - OJC   MOCLDY    56  53  90 S5        29.94F
LAWRENCE       PTCLDY    54  54 100 W6        29.94F

$$

MOZ001>008-011>017-020>025-030>033-038>040-044>046-053-054-291200-
...NORTHERN AND CENTRAL MISSOURI...

CITY           SKY/WX    TMP DP  RH WIND       PRES   REMARKS
ST. JOSEPH     CLOUDY    60  53  77 CALM      29.93S
MOSBY          MOSUNNY   52  50  93 CALM      29.92F
WARRENSBURG    CLEAR     52  50  93 S3        29.94S
WHITEMAN AFB   CLEAR     53  53 100 SW8       29.92F
CLINTON        CLEAR     55  54  94 CALM      29.95F
SEDALIA        CLEAR     57  55  93 S7        29.94F
WARSAW         NOT AVBL
CHILLICOTHE      N/A     52  49  89 CALM      29.92S
KIRKSVILLE     CLEAR     55  47  74 VRB3      29.90S

$$

MOZ041-047>049-056>058-063>065-088>090-097-291200-
...EASTERN AND SOUTHERN MISSOURI...

CITY           SKY/WX    TMP DP  RH WIND       PRES   REMARKS
ST. LOUIS INTL MOCLDY    64  55  72 W7        29.92S
SPIRIT OF STL  CLEAR     60  56  86 W3        29.91S
COLUMBIA       PTCLDY    61  50  67 W3        29.93F
JEFFERSON CITY PTCLDY    57  53  86 E3        29.94S
ROLLA          CLEAR     55  53  93 SW6       29.95S
OSAGE BEACH    CLEAR     53  52  96 CALM      29.97S
SPRINGFIELD    CLEAR     60  55  83 SW5       29.98S
BRANSON        CLEAR     59  54  82 CALM      30.00S
JOPLIN         PTCLDY    61  56  83 SW7       29.98F
WEST PLAINS    CLOUDY    58  54  86 SW5       29.98F

$$

IAZ060-094-KSZ022-034>040-054-083-096-NEZ052-066-093-291200-
...KANSAS...SOUTHEAST NEBRASKA AND IOWA...

CITY           SKY/WX    TMP DP  RH WIND       PRES   REMARKS
TOPEKA         PTCLDY    58  54  86 W6        29.95S
MANHATTAN      CLOUDY    56  54  93 CALM      29.98F
EMPORIA        CLEAR     60  48  64 W8        29.97F
CHANUTE        CLEAR     55  49  80 CALM      29.97F
WICHITA        CLEAR     58  47  66 N6        30.00S
OMAHA          PTCLDY    57  44  62 N3        29.95R
LINCOLN        PTCLDY    57  47  69 W5        30.00R
FALLS CITY     CLEAR     56  49  77 W8        29.94S
LAMONI         CLOUDY    60  45  57 W13       29.91R
DES MOINES     CLOUDY    57  48  72 CALM      29.90S

$$





USA.gov is the U.S. government's official web portal to all federal, state and local government web resources and services.